CDT,Max TemperatureF,Mean TemperatureF,Min TemperatureF,Max Dew PointF,MeanDew PointF,Min DewpointF,Max Humidity, Mean Humidity, Min Humidity, Max Sea Level PressureIn, Mean Sea Level PressureIn, Min Sea Level PressureIn, Max VisibilityMiles, Mean VisibilityMiles, Min VisibilityMiles, Max Wind SpeedMPH, Mean Wind SpeedMPH, Max Gust SpeedMPH,PrecipitationIn, CloudCover, Events, WindDirDegrees
2013-4-1,76,61,46,57,50,46,100,69,38,30.11,30.03,29.97,10,4,0,8,1,13,0.00,5,Fog,111
2013-4-2,68,56,43,52,46,37,93,71,48,30.17,30.10,30.04,10,10,6,20,10,25,0.03,4,Rain,44
2013-4-3,44,43,41,43,40,37,96,89,82,30.17,30.11,30.05,10,8,3,22,10,29,0.44,8,Rain,31
2013-4-4,46,44,41,43,41,38,100,91,82,30.13,30.07,30.02,10,8,2,13,7,18,0.17,8,Rain,323
2013-4-5,71,55,39,48,41,37,96,63,29,30.22,30.15,30.09,10,10,8,9,2,12,0.00,3,,311
2013-4-6,75,59,42,52,45,41,96,65,33,30.12,30.02,29.91,10,10,8,18,7,24,0.00,3,,172
2013-4-7,77,67,56,57,54,52,93,70,46,30.03,29.96,29.87,10,10,10,17,8,23,0.00,4,,166
2013-4-8,83,73,62,61,59,56,93,67,40,29.91,29.86,29.79,10,10,10,23,9,30,0.00,4,,157
2013-4-9,85,73,61,68,63,59,93,72,51,29.91,29.85,29.77,10,10,8,25,11,37,0.00,4,,151
2013-4-10,79,63,46,71,61,45,93,82,71,29.88,29.79,29.65,10,8,2,23,11,31,1.24,8,Rain-Thunderstorm,195
2013-4-11,59,51,42,48,43,41,100,77,53,29.89,29.82,29.77,10,8,2,17,6,23,1.03,6,Rain-Thunderstorm,304
2013-4-12,73,55,36,50,43,35,100,67,33,30.01,29.94,29.88,10,10,10,14,3,18,0.00,0,,261
2013-4-13,77,61,45,53,48,43,93,66,38,30.06,29.97,29.87,10,10,10,13,4,16,0.00,0,,76
2013-4-14,77,65,52,60,56,51,93,72,50,29.83,29.76,29.67,10,10,10,18,6,24,0.00,2,,149
2013-4-15,86,74,61,67,63,60,100,73,45,29.88,29.82,29.75,10,9,6,14,8,22,0.00,3,,158
2013-4-16,85,79,72,72,70,68,93,76,59,30.00,29.95,29.86,10,8,5,18,9,26,0.00,6,,154
2013-4-17,87,79,70,72,69,65,100,73,46,30.03,29.95,29.81,10,8,4,25,11,31,0.00,5,,151
2013-4-18,76,61,45,70,58,41,100,90,79,30.02,29.80,29.70,10,8,1,22,10,30,1.28,8,Rain-Thunderstorm,260
2013-4-19,59,48,37,43,35,28,93,65,36,30.20,30.13,30.03,10,10,10,18,7,30,0.00,1,,287
2013-4-20,70,53,36,44,38,32,100,66,31,30.27,30.21,30.14,10,10,10,14,3,18,0.00,0,,107
2013-4-21,71,57,43,46,42,39,96,64,31,30.27,30.20,30.14,10,10,10,14,4,20,0.00,0,,95
2013-4-22,77,60,42,50,45,40,96,65,33,30.18,30.08,29.97,10,10,10,15,5,22,0.00,0,,130
2013-4-23,78,65,51,65,58,48,93,75,56,30.03,29.97,29.90,10,10,8,20,6,28,0.02,6,,183
2013-4-24,60,52,43,58,45,40,96,74,51,30.31,30.17,29.98,10,10,2,20,7,24,0.10,6,Rain,322
2013-4-25,71,55,38,44,40,37,100,66,31,30.39,30.32,30.27,10,10,7,14,5,21,0.00,0,,69
2013-4-26,67,58,48,58,50,44,93,78,62,30.27,30.21,30.12,10,10,10,10,4,14,0.00,5,,88
2013-4-27,79,68,57,67,64,57,100,84,67,30.13,30.04,29.92,10,9,5,18,9,24,0.00,6,Thunderstorm,203
2013-4-28,79,66,52,58,54,50,100,69,37,30.04,29.98,29.91,10,10,9,13,2,15,0.00,1,,309
2013-4-29,85,69,52,63,56,51,100,67,34,29.97,29.91,29.85,10,10,7,10,1,15,0.00,0,,150
2013-4-30,84,69,53,62,59,53,100,73,46,29.90,29.87,29.83,10,10,8,15,4,24,0.00,1,,110